This is the latest recevied weather packets stored in our database for station/object IK2YOU-3. If no packets are shown the sender has not sent any weather packets the latest 10 day(s).
| Time | Temp. | Humidity | Pressure | Rain* | Wind** | Luminosity | Snow |
|---|---|---|---|---|---|---|---|
| 1777683817 | 11.67° C | 73% | 1023.7 hPa | 0 mm | - | 0 W/m² | - |
| 1777683273 | 11.67° C | 72% | 1023.7 hPa | 0 mm | - | 0 W/m² | - |
| 1777682672 | 11.67° C | 72% | 1023.6 hPa | 0 mm | - | 0 W/m² | - |
| 1777682072 | 11.67° C | 69% | 1023.7 hPa | 0 mm | - | 0 W/m² | - |
| 1777681473 | 11.67° C | 68% | 1023.7 hPa | 0 mm | - | 0 W/m² | - |
| 1777681000 | 11.67° C | 67% | 1023.7 hPa | 0 mm | - | 0 W/m² | - |
| 1777680402 | 11.67° C | 67% | 1023.6 hPa | 0 mm | - | 0 W/m² | - |
| 1777679670 | 11.67° C | 68% | 1023.7 hPa | 0 mm | - | 0 W/m² | - |
| 1777679069 | 11.67° C | 67% | 1023.6 hPa | 0 mm | - | 0 W/m² | - |
| 1777678599 | 11.67° C | 67% | 1023.5 hPa | 0 mm | - | 0 W/m² | - |
| 1777677871 | 12.22° C | 67% | 1023.6 hPa | 0 mm | - | 0 W/m² | - |
| 1777677270 | 12.22° C | 67% | 1023.6 hPa | 0 mm | - | 0 W/m² | - |
| 1777676797 | 12.22° C | 64% | 1023.7 hPa | 0 mm | - | 0 W/m² | - |
| 1777676070 | 12.78° C | 63% | 1023.7 hPa | 0 mm | - | 0 W/m² | - |
| 1777675469 | 13.33° C | 62% | 1023.6 hPa | 0 mm | - | 0 W/m² | - |
| 1777674995 | 13.33° C | 62% | 1023.6 hPa | 0 mm | - | 0 W/m² | - |
| 1777674268 | 13.33° C | 64% | 1023.6 hPa | 0 mm | - | 0 W/m² | - |
| 1777673666 | 13.33° C | 65% | 1023.6 hPa | 0 mm | - | 0 W/m² | - |
| 1777673067 | 13.89° C | 65% | 1023.6 hPa | 0 mm | - | 0 W/m² | - |
| 1777672467 | 13.33° C | 62% | 1023.5 hPa | 0 mm | - | 0 W/m² | - |
| 1777671867 | 13.89° C | 58% | 1023.5 hPa | 0 mm | - | 0 W/m² | - |
| 1777671266 | 14.44° C | 56% | 1023.5 hPa | 0 mm | - | 0 W/m² | - |
| 1777670796 | 14.44° C | 55% | 1023.4 hPa | 0 mm | - | 0 W/m² | - |
| 1777670065 | 14.44° C | 54% | 1023.4 hPa | 0 mm | - | 0 W/m² | - |
| 1777669593 | 15° C | 53% | 1023.4 hPa | 0 mm | - | 0 W/m² | - |
* Rain since midnight (hover to see other rain measurements)
** Current wind speed in m/s (hover to see current wind gust speed)